When you browse on this site, cookies collect data to enhance your experience and personalize the content and advertising you see.
Visit our Privacy Policy to learn more. By continuing to use the site, you agree to this use of cookies and data.
  • In Lithuania
  • List of Countries
  • For 7 days
  • Water Temperature
  • Satellite Maps
  • Weather Map
  • Weather Widgets
  • user-avatar
    Login

    Hourly Weather Canberra

    Today, 19 June, Wednesday

    Time Temperature Precipitation Wind Pressure Humidity
    00:00 +4°C° 0 mm 1 mps 710 mmHg 95%
    01:00 +4°C° 0 mm 1 mps 710 mmHg 96%
    02:00 +3°C° 0 mm 1 mps 710 mmHg 96%
    03:00 +3°C° 0 mm 1 mps 711 mmHg 96%
    04:00 +2°C° 0 mm 1 mps 711 mmHg 95%
    05:00 +2°C° 0 mm 1 mps 711 mmHg 95%
    06:00 +1°C° 0 mm 1 mps 711 mmHg 94%
    07:00 0°C° 0 mm 0 mps 712 mmHg 94%
    08:00 +2°C° 0 mm 0 mps 712 mmHg 83%
    09:00 +6°C° 0 mm 1 mps 713 mmHg 73%
    10:00 +8°C° 0 mm 1 mps 713 mmHg 63%
    11:00 +9°C° 0 mm 1 mps 713 mmHg 56%
    12:00 +10°C° 0 mm 1 mps 713 mmHg 48%
    13:00 +12°C° 0 mm 1 mps 712 mmHg 41%
    14:00 +11°C° 0 mm 1 mps 712 mmHg 46%
    15:00 +10°C° 0 mm 1 mps 712 mmHg 51%
    16:00 +10°C° 0 mm 1 mps 712 mmHg 56%
    17:00 +8°C° 0 mm 1 mps 713 mmHg 64%
    18:00 +6°C° 0 mm 1 mps 713 mmHg 71%
    19:00 +4°C° 0 mm 1 mps 713 mmHg 79%
    20:00 +3°C° 0 mm 1 mps 713 mmHg 81%
    21:00 +2°C° 0 mm 1 mps 713 mmHg 83%
    22:00 +2°C° 0 mm 1 mps 713 mmHg 85%
    23:00 +1°C° 0 mm 1 mps 713 mmHg 86%

    Tomorrow, 20 June, Thursday

    Time Temperature Precipitation Wind Pressure Humidity
    00:00 +1°C° 0 mm 1 mps 713 mmHg 87%
    01:00 +1°C° 0 mm 1 mps 713 mmHg 88%
    02:00 0°C° 0 mm 1 mps 713 mmHg 89%
    03:00 0°C° 0 mm 1 mps 713 mmHg 89%
    04:00 0°C° 0 mm 1 mps 713 mmHg 89%
    05:00 0°C° 0 mm 1 mps 713 mmHg 89%
    06:00 0°C° 0 mm 1 mps 713 mmHg 89%
    07:00 0°C° 0 mm 1 mps 714 mmHg 89%
    08:00 +2°C° 0 mm 0 mps 714 mmHg 80%
    09:00 +4°C° 0 mm 0 mps 714 mmHg 71%
    10:00 +7°C° 0 mm 0 mps 714 mmHg 61%
    11:00 +8°C° 0 mm 1 mps 713 mmHg 60%
    12:00 +8°C° 0 mm 2 mps 713 mmHg 58%
    13:00 +8°C° 0 mm 2 mps 712 mmHg 57%
    14:00 +8°C° 0 mm 2 mps 712 mmHg 59%
    15:00 +8°C° 0 mm 2 mps 712 mmHg 61%
    16:00 +7°C° 0 mm 2 mps 711 mmHg 62%
    17:00 +5°C° 0 mm 2 mps 711 mmHg 71%
    18:00 +4°C° 0 mm 1 mps 712 mmHg 79%
    19:00 +2°C° 0 mm 1 mps 712 mmHg 88%
    20:00 +2°C° 0 mm 1 mps 712 mmHg 88%
    21:00 0°C° 0 mm 0 mps 712 mmHg 89%
    22:00 0°C° 0 mm 0 mps 712 mmHg 90%
    23:00 +1°C° 0 mm 1 mps 712 mmHg 91%

    Day after tomorrow, 21 June, Friday

    Time Temperature Precipitation Wind Pressure Humidity
    00:00 0°C° 0 mm 1 mps 712 mmHg 92%
    01:00 0°C° 0 mm 1 mps 712 mmHg 93%
    02:00 0°C° 0 mm 1 mps 712 mmHg 93%
    03:00 0°C° 0 mm 1 mps 712 mmHg 93%
    04:00 -1°C° 0 mm 1 mps 712 mmHg 93%
    05:00 -1°C° 0 mm 1 mps 712 mmHg 93%
    06:00 -1°C° 0 mm 1 mps 712 mmHg 92%
    07:00 -1°C° 0 mm 1 mps 713 mmHg 92%
    08:00 +1°C° 0 mm 1 mps 713 mmHg 81%
    09:00 +4°C° 0 mm 1 mps 713 mmHg 71%
    10:00 +5°C° 0 mm 2 mps 714 mmHg 60%
    11:00 +7°C° 0 mm 2 mps 713 mmHg 54%
    12:00 +8°C° 0 mm 2 mps 713 mmHg 49%
    13:00 +9°C° 0 mm 2 mps 713 mmHg 43%
    14:00 +9°C° 0 mm 2 mps 713 mmHg 47%
    15:00 +8°C° 0 mm 2 mps 713 mmHg 51%
    16:00 +8°C° 0 mm 2 mps 713 mmHg 55%
    17:00 +6°C° 0 mm 2 mps 714 mmHg 64%
    18:00 +5°C° 0 mm 1 mps 714 mmHg 72%
    19:00 +2°C° 0 mm 1 mps 715 mmHg 81%
    20:00 +2°C° 0 mm 1 mps 715 mmHg 85%
    21:00 -1°C° 0 mm 2 mps 715 mmHg 88%
    22:00 -1°C° 0 mm 2 mps 715 mmHg 92%
    23:00 -1°C° 0 mm 2 mps 715 mmHg 92%

    22 June, Saturday

    Time Temperature Precipitation Wind Pressure Humidity
    00:00 -1°C° 0 mm 2 mps 715 mmHg 92%
    01:00 -2°C° 0 mm 2 mps 716 mmHg 92%
    02:00 -2°C° 0 mm 2 mps 715 mmHg 92%
    03:00 -2°C° 0 mm 2 mps 715 mmHg 92%
    04:00 -2°C° 0 mm 2 mps 715 mmHg 91%
    05:00 -2°C° 0 mm 2 mps 716 mmHg 91%
    06:00 -2°C° 0 mm 2 mps 716 mmHg 91%
    07:00 -2°C° 0 mm 2 mps 716 mmHg 91%
    08:00 +1°C° 0 mm 2 mps 717 mmHg 81%
    09:00 +4°C° 0 mm 2 mps 717 mmHg 72%
    10:00 +5°C° 0 mm 3 mps 717 mmHg 62%
    11:00 +8°C° 0 mm 3 mps 717 mmHg 58%
    12:00 +9°C° 0 mm 3 mps 717 mmHg 53%
    13:00 +11°C° 0 mm 3 mps 716 mmHg 49%
    14:00 +10°C° 0 mm 3 mps 716 mmHg 53%
    15:00 +9°C° 0 mm 2 mps 716 mmHg 58%
    16:00 +9°C° 0 mm 2 mps 716 mmHg 62%
    17:00 +7°C° 0 mm 2 mps 716 mmHg 71%
    18:00 +5°C° 0 mm 2 mps 716 mmHg 79%
    19:00 +2°C° 0 mm 2 mps 717 mmHg 87%
    20:00 +2°C° 0 mm 2 mps 717 mmHg 88%
    21:00 +1°C° 0 mm 2 mps 717 mmHg 89%
    22:00 +1°C° 0 mm 2 mps 717 mmHg 90%
    23:00 -1°C° 0 mm 2 mps 717 mmHg 91%

    23 June, Sunday

    Time Temperature Precipitation Wind Pressure Humidity
    00:00 -1°C° 0 mm 2 mps 717 mmHg 91%
    01:00 -1°C° 0 mm 2 mps 716 mmHg 91%
    02:00 -1°C° 0 mm 2 mps 716 mmHg 92%
    03:00 -1°C° 0 mm 2 mps 716 mmHg 93%
    04:00 -1°C° 0 mm 2 mps 716 mmHg 94%
    05:00 -1°C° 0 mm 2 mps 717 mmHg 94%
    06:00 -1°C° 0 mm 2 mps 717 mmHg 94%
    07:00 -1°C° 0 mm 2 mps 717 mmHg 94%
    08:00 +2°C° 0 mm 2 mps 717 mmHg 86%
    09:00 +4°C° 0 mm 3 mps 718 mmHg 78%
    10:00 +7°C° 0 mm 3 mps 718 mmHg 70%
    11:00 +7°C° 0.3 mm 3 mps 717 mmHg 73%
    12:00 +7°C° 0.3 mm 3 mps 717 mmHg 77%
    13:00 +6°C° 0.3 mm 4 mps 716 mmHg 80%
    14:00 +7°C° 0.8 mm 3 mps 716 mmHg 82%
    15:00 +7°C° 0.8 mm 2 mps 716 mmHg 83%
    16:00 +6°C° 0.8 mm 2 mps 716 mmHg 85%
    17:00 +5°C° 0 mm 2 mps 717 mmHg 88%
    18:00 +4°C° 0 mm 2 mps 717 mmHg 90%
    19:00 +3°C° 0 mm 2 mps 717 mmHg 93%
    20:00 +2°C° 0 mm 2 mps 717 mmHg 94%
    21:00 +2°C° 0 mm 2 mps 717 mmHg 94%
    22:00 +2°C° 0 mm 2 mps 717 mmHg 94%
    23:00 +2°C° 0 mm 2 mps 717 mmHg 94%

    24 June, Monday

    Time Temperature Precipitation Wind Pressure Humidity
    00:00 +2°C° 0 mm 2 mps 717 mmHg 94%
    01:00 +1°C° 0 mm 3 mps 717 mmHg 93%
    02:00 +1°C° 0 mm 3 mps 717 mmHg 93%
    03:00 +1°C° 0 mm 3 mps 717 mmHg 93%
    04:00 +2°C° 0 mm 2 mps 717 mmHg 94%
    05:00 +2°C° 0 mm 2 mps 717 mmHg 94%
    06:00 +2°C° 0 mm 2 mps 717 mmHg 93%
    07:00 +1°C° 0 mm 2 mps 718 mmHg 93%
    08:00 +3°C° 0 mm 2 mps 718 mmHg 88%
    09:00 +6°C° 0 mm 2 mps 718 mmHg 82%
    10:00 +8°C° 0 mm 2 mps 718 mmHg 76%
    11:00 +9°C° 0 mm 2 mps 718 mmHg 71%
    12:00 +10°C° 0 mm 2 mps 717 mmHg 67%
    13:00 +12°C° 0 mm 2 mps 717 mmHg 62%
    14:00 +12°C° 0 mm 2 mps 717 mmHg 65%
    15:00 +10°C° 0 mm 2 mps 717 mmHg 68%
    16:00 +10°C° 0 mm 2 mps 716 mmHg 71%
    17:00 +8°C° 0 mm 2 mps 717 mmHg 78%
    18:00 +8°C° 0 mm 1 mps 717 mmHg 85%
    19:00 +6°C° 0 mm 1 mps 717 mmHg 91%
    20:00 +5°C° 0 mm 1 mps 717 mmHg 92%
    21:00 +5°C° 0 mm 1 mps 718 mmHg 92%
    22:00 +4°C° 0 mm 1 mps 718 mmHg 93%
    23:00 +4°C° 0 mm 1 mps 718 mmHg 92%
    Show more